{"data":{"norad_id":68450,"epoch":"2026-05-25T03:10:14.060352Z","epoch_age_seconds":66829,"freshness":"FRESH","line1":"1 68450U 26067AL  26145.13210718  .00006521  00000+0  31970-3 0  9991","line2":"2 68450  97.4532 103.9520 0004068  94.6422 265.5277 15.18456061  8447","mean_motion":15.18456061,"eccentricity":0.0004068,"inclination_deg":97.4532,"raan_deg":103.952,"arg_perigee_deg":94.6422,"mean_anomaly_deg":265.5277,"bstar":0.0003197,"rev_number":844,"period_min":94.833168834116,"perigee_km":507.70386027039,"apogee_km":513.30846034562,"semimajor_km":6888.643160308,"source":"CELESTRAK","updated_at":"2026-05-25T13:38:07.842091Z"}}